Regional Weather Roundup
Issued by NWS Goodland, KS

Home | Current Version | Previous Version | Graphics & Text | Print | Product List | Glossary On
Versions: 1 2 3 4 5 6 7 8 9 10 11 12 13 14 15 16 17 18 19 20 21 22 23 24 25 26 27 28 29 30 31 32 33 34 35 36 37 38 39 40 41 42 43 44 45 46 47 48 49 50
751
ASUS43 KGLD 081059
RWRGLD

GOODLAND FORECAST AREA HOURLY WEATHER ROUNDUP
NATIONAL WEATHER SERVICE GOODLAND KS
400 AM MST MON FEB 08 2016

...OFFICIAL OBSERVATIONS...

CITY           SKY/WX    TMP DP  RH WIND       PRES   REMARKS
GOODLAND KS    CLEAR     24   9  52 NW20      30.30F WCI  10
HILL CITY KS   CLEAR     27  15  61 NW21G30   30.26S WCI  13
IMPERIAL NEB   CLEAR     24  11  57 NW16      30.29S WCI  11
MCCOOK NEB     CLEAR     25  13  60 NW20      30.26F WCI  11
AKRON CO       CLOUDY    20  11  68 NW15      30.31F WCI   6
BURLINGTON CO  CLEAR     20  10  65 NW16      30.32F WCI   6
LIMON CO       CLOUDY    16  10  77 SW5       30.34F
$$

...UNOFFICIAL OBSERVATIONS...

CITY           SKY/WX    TMP DP  RH WIND       PRES   REMARKS
COLBY KS       CLEAR     27  18  69 NW22      30.29F WCI  12
GOVE KS          N/A     28  32 100 MISG        N/A
LENORA KS        N/A     25  32 100 MISG        N/A
NORTON KS      CLEAR     25  12  58 W20G28    30.22F WCI  11
KIT CARSON CO    N/A     18  11  72 MISG        N/A
$$




USA.gov is the U.S. government's official web portal to all federal, state and local government web resources and services.